FENGYUN 1C DEB, 29806

Orbit data source: Space-Track

FENGYUN 1C DEB, 29806 is space debris in SSO originally from a launch on Mon, 10 May 1999 UTC launched from the Taiyaun Space Center, China (TSC). Fengyun 1C debris stems from the Chinese weather satellite Fengyun-1C, which was intentionally destroyed by a Chinese anti-satellite missile in 2007. This event dramatically increased the amount of space debris, with thousands of trackable fragments posing hazards to satellites and human spaceflight. The Fengyun 1C debris cloud has become a focal point in discussions about space sustainability and the need for international regulations to prevent the creation of new debris.

Loading next visibility...
Identifier
29806, 1999-025CY
Orbit
SSO
Country
Flag of CNCN / PRC
Related business
Manufacturer
Unknown
Mission
Spacecraft
Bus & Motor
Unknown
Mass
Unknown
Launch date (UTC)
1999-05-10 (27 years ago)
Launch vehicle
Unknown
Launch site
Taiyaun Space Center, China (TSC)
Object type
Payload
Rocket body
Debris
Shape & HBR
Unknown shape, 0.1 m
Radar Cross Section
Medium (>0.1 m² and <1 m²)

Expand to show TLE details & history
Last TLE update: 15 hours ago

TLE from 15 hours ago
0 FENGYUN 1C DEB
1 29806U 99025CY  26150.59119632  .00000840  00000-0  47730-3 0  9996
2 29806  98.7020 166.5823 0029808 130.6350 352.6682 14.12327671995222
Epoch: 2026-05-30T14:11Z
TLE epoch observation values (Epoch: 2026-05-30T14:11:19.362Z)
Latitude
55.84804°
Longitude
-101.38402°
Altitude
839.301 km
Speed
7.45 km/s
True Right ascension
23h 58m 12s
True Declination
55° 41' 24"
Sunlit
Object was in daylight at epoch
Visualization orbit readout
Latitude
Unknown
Longitude
Unknown
Altitude
Unknown
Speed
Unknown
Apparent Right ascension
Unknown
Apparent Declination
Unknown
Sunlit
N/A
Visualization observer readout
Local Sidereal Time
14:33:49
Azimuth
Unknown
Elevation
Unknown
Doppler factor
Unknown
Orbital elements
Apogee altitude
870.127 km
Perigee altitude
827.044 km
Semi-major axis
7,226.723 km
Eccentricity
0.00298
Inclination
98.702°
RAAN
166.5823°
Arg. of periapsis
130.635°
True anomaly
352.62445°
Mean anomaly
352.6682°
Eccentric anomaly
352.64634°
Mean motion
3.5329 °/min
Orbital period
101.9 mins
BSTAR
0.0004773
Loading maneuver chart data...
Computing Atmospheric mass density...

Documentation

Showing up to 5 results
|